Home > Weather > New Orleans > Past weeks

Flag for USA Past Weather in New Orleans, Louisiana, USA — Yesterday and Last 2 Weeks

Now
84 °F

Scattered clouds.


Feels Like: 90 °F
Forecast: 71 / 87 °F
Wind: 8 mph from North

Location: Lakefront Airport

Current Time: May 29, 2016 at 12:33:07 PM

Latest Report: May 29, 2016 at 11:53 AM


Visibility: 10 mi

Pressure: 30.11 "Hg

Humidity: 67%

Dew Point: 72 °F

Location of New OrleansLocation

Past Weather in New Orleans — Graph

°F

New Orleans Temperature Yesterday

Maximum temperature yesterday: 84 °F (at 11:53 AM)
Minimum temperature yesterday: 73 °F (at 2:04 PM)
Average temperature yesterday: 77 °F

High & Low Weather Summary for the Past Weeks

 TemperatureHumidityPressure
High88 °F (May 21, 3:53 PM)93% (May 19, 11:01 PM)30.13 "Hg (May 19, 11:01 PM)
Low68 °F (May 19, 11:53 PM)38% (May 14, 11:53 AM)29.83 "Hg (May 17, 3:53 PM)
Average78 °F70%29.99 "Hg
* Reported May 14 10:53 AM — May 29 10:53 AM, New Orleans, Weather by CustomWeather, © 2016

Note: Actual official high and low records may vary slightly from our data, if they occured in-between our weather recording intervals... More about our weather records

Advertising

New Orleans Weather History for the Previous 24 Hours

Scroll right to see more
 ConditionsComfort  
Time TempWeatherWind HumidityBarometerVisibility
10:53 AM
Sun, May 29
83 °FSunny.8 mph68%30.11 "Hg10 mi
9:53 AM81 °FSunny.8 mph77%30.11 "Hg10 mi
8:53 AM79 °FSunny.7 mph82%30.11 "Hg9 mi
7:53 AM78 °FScattered clouds.7 mph84%30.09 "Hg10 mi
6:53 AM77 °FClear.6 mph85%30.07 "Hg10 mi
5:53 AM76 °FClear.6 mph85%30.05 "Hg10 mi
4:53 AM74 °FClear.No wind85%30.04 "Hg9 mi
3:53 AM75 °FClear.5 mph88%30.03 "Hg10 mi
2:53 AM75 °FClear.5 mph88%30.01 "Hg10 mi
1:53 AM74 °FClear.5 mph85%30.03 "Hg10 mi
12:53 AM74 °FClear.No wind82%30.04 "Hg10 mi
11:53 PM
Sat, May 28
74 °FClear.5 mph85%30.04 "Hg10 mi
10:53 PM74 °FClear.No wind85%30.04 "Hg10 mi
9:53 PM74 °FClear.No wind82%30.05 "Hg10 mi
8:53 PM75 °FSunny.9 mph79%30.04 "Hg10 mi
7:53 PM76 °FSunny.10 mph80%30.03 "Hg10 mi
6:53 PM78 °FSunny.13 mph71%30.03 "Hg10 mi
5:53 PM77 °FSunny.14 mph71%30.01 "Hg10 mi
4:53 PM79 °FScattered clouds.9 mph69%29.99 "Hg10 mi
3:53 PM76 °FBroken clouds.12 mph77%30.01 "Hg10 mi
2:53 PM76 °FThundershowers. Cloudy.12 mph82%30.03 "Hg9 mi
2:04 PM73 °FThunderstorms. Mostly cloudy.20 mph81%30.03 "Hg2 mi
1:53 PM76 °FThunderstorms. Broken clouds.29 mph72%29.99 "Hg9 mi
12:53 PM84 °FPassing clouds.7 mph61%30.01 "Hg10 mi
Weather by CustomWeather, © 2016

See weather overviewHow to use our weather pages